timestamp,surface_pressure_avg,surface_temp_avg,battery_voltage,lat,long
2022-12-09 00:09:00+00:00,325.3747,5.04,12.57,47.84626,-54.09684
2022-12-09 00:19:00+00:00,324.2714,5.04,12.57,47.84626,-54.09684
2022-12-09 00:29:00+00:00,327.3013,5.04,12.57,47.84626,-54.09684
2022-12-09 00:39:00+00:00,323.7746,5.05,12.57,47.84626,-54.09684
2022-12-09 00:49:00+00:00,315.5996,5.03,12.57,47.84626,-54.09684
2022-12-09 00:59:00+00:00,312.3997,5.03,12.57,47.84626,-54.09684
2022-12-09 01:09:00+00:00,313.313,5.04,12.57,47.84626,-54.09684
2022-12-09 01:19:00+00:00,306.4147,5.07,12.57,47.84626,-54.09684
2022-12-09 01:29:00+00:00,298.8497,5.08,12.57,47.84626,-54.09684
2022-12-09 01:39:00+00:00,298.5348,5.07,12.57,47.84626,-54.09684
2022-12-09 01:49:00+00:00,298.2463,5.08,12.57,47.84626,-54.09684
2022-12-09 01:59:00+00:00,290.4614,5.08,12.57,47.84626,-54.09684
2022-12-09 02:09:00+00:00,285.0264,5.08,12.57,47.84626,-54.09684
2022-12-09 02:19:00+00:00,285.1431,5.09,12.57,47.84626,-54.09684
2022-12-09 02:29:00+00:00,280.6564,5.08,12.57,47.84626,-54.09684
2022-12-09 02:39:00+00:00,270.2647,5.0,12.57,47.84626,-54.09684
2022-12-09 02:49:00+00:00,265.1897,5.0,12.57,47.84626,-54.09684
2022-12-09 02:59:00+00:00,263.1614,5.0,12.57,47.84626,-54.09684
2022-12-09 03:09:00+00:00,253.4247,5.0,12.57,47.84626,-54.09684
2022-12-09 03:19:00+00:00,243.9397,5.0,12.57,47.84626,-54.09684
2022-12-09 03:29:00+00:00,241.198,4.96,12.57,47.84626,-54.09684
2022-12-09 03:39:00+00:00,236.6214,4.96,12.57,47.84626,-54.09684
2022-12-09 03:49:00+00:00,225.4414,4.98,12.57,47.84626,-54.09684
2022-12-09 03:59:00+00:00,216.9081,4.96,12.57,47.84626,-54.09684
2022-12-09 04:09:00+00:00,213.3898,4.95,12.57,47.84626,-54.09684
2022-12-09 04:19:00+00:00,207.7331,4.94,12.57,47.84626,-54.09684
2022-12-09 04:29:00+00:00,202.8315,4.9,12.57,47.84626,-54.09684
2022-12-09 04:39:00+00:00,199.9664,4.9,12.57,47.84626,-54.09684
2022-12-09 04:49:00+00:00,194.8897,4.9,12.57,47.84626,-54.09684
2022-12-09 04:59:00+00:00,190.1381,4.9,12.57,47.84626,-54.09684
2022-12-09 05:09:00+00:00,189.8531,4.9,12.57,47.84626,-54.09684
2022-12-09 05:19:00+00:00,192.2698,4.9,12.57,47.84626,-54.09684
2022-12-09 05:29:00+00:00,192.2047,4.9,12.57,47.84626,-54.09684
2022-12-09 05:39:00+00:00,190.2147,4.9,12.57,47.84626,-54.09684
2022-12-09 05:49:00+00:00,191.2932,4.9,12.57,47.84626,-54.09684
2022-12-09 05:59:00+00:00,194.8014,4.9,12.57,47.84626,-54.09684
2022-12-09 06:09:00+00:00,197.5081,4.9,12.57,47.84626,-54.09684
2022-12-09 06:19:00+00:00,198.2931,4.9,12.57,47.84626,-54.09684
2022-12-09 06:29:00+00:00,200.3015,4.9,12.57,47.84626,-54.09684
2022-12-09 06:39:00+00:00,203.5265,4.9,12.57,47.84626,-54.09684
2022-12-09 06:49:00+00:00,207.0797,4.92,12.57,47.84626,-54.09684
2022-12-09 06:59:00+00:00,210.7064,4.94,12.57,47.84626,-54.09684
2022-12-09 07:09:00+00:00,213.5547,4.95,12.57,47.84626,-54.09684
2022-12-09 07:19:00+00:00,216.9064,4.97,12.57,47.84626,-54.09684
2022-12-09 07:29:00+00:00,223.0231,4.97,12.57,47.84626,-54.09684
2022-12-09 07:39:00+00:00,227.8764,4.96,12.57,47.84626,-54.09684
2022-12-09 07:49:00+00:00,231.9547,4.97,12.57,47.84626,-54.09684
2022-12-09 07:59:00+00:00,239.5814,4.98,12.57,47.84626,-54.09684
2022-12-09 08:09:00+00:00,246.0481,4.98,12.57,47.84626,-54.09684
2022-12-09 08:19:00+00:00,247.4832,5.0,12.57,47.84626,-54.09684
2022-12-09 08:29:00+00:00,248.3464,5.0,12.57,47.84626,-54.09684
2022-12-09 08:39:00+00:00,254.5948,5.0,12.57,47.84626,-54.09684
2022-12-09 08:49:00+00:00,261.3748,5.0,12.57,47.84626,-54.09684
2022-12-09 08:59:00+00:00,266.7347,5.0,12.57,47.84626,-54.09684
2022-12-09 09:09:00+00:00,271.5497,5.0,12.57,47.84626,-54.09684
2022-12-09 09:19:00+00:00,277.2747,5.0,12.57,47.84626,-54.09684
2022-12-09 09:29:00+00:00,282.5431,5.0,12.57,47.84626,-54.09684
2022-12-09 09:39:00+00:00,287.3614,5.0,12.57,47.84626,-54.09684
2022-12-09 09:49:00+00:00,290.928,4.9,12.57,47.84626,-54.09684
2022-12-09 09:59:00+00:00,297.4997,4.9,12.57,47.84626,-54.09684
2022-12-09 10:09:00+00:00,305.3947,4.9,12.57,47.84626,-54.09684
2022-12-09 10:19:00+00:00,309.5496,4.9,12.57,47.84626,-54.09684
2022-12-09 10:29:00+00:00,313.953,4.98,12.57,47.84626,-54.09684
2022-12-09 10:39:00+00:00,322.7447,5.0,12.57,47.84626,-54.09684
2022-12-09 10:49:00+00:00,332.1629,4.94,12.57,47.84626,-54.09684
2022-12-09 10:59:00+00:00,335.1896,4.9,12.57,47.84626,-54.09684
2022-12-09 11:09:00+00:00,340.3347,4.9,12.57,47.84626,-54.09684
2022-12-09 11:19:00+00:00,349.5563,4.94,12.57,47.84626,-54.09684
2022-12-09 11:29:00+00:00,352.338,4.94,12.57,47.84626,-54.09684
2022-12-09 11:39:00+00:00,351.2795,4.97,12.57,47.84626,-54.09684
2022-12-09 11:49:00+00:00,351.8846,5.0,12.57,47.84626,-54.09684
2022-12-09 11:59:00+00:00,355.6912,5.0,12.57,47.84626,-54.09684
2022-12-09 12:09:00+00:00,355.7629,5.0,12.57,47.84626,-54.09684
2022-12-09 12:19:00+00:00,353.6813,5.0,12.57,47.84626,-54.09684
2022-12-09 12:29:00+00:00,354.788,5.0,12.57,47.84626,-54.09684
2022-12-09 12:39:00+00:00,356.6528,4.9,12.57,47.84626,-54.09684
2022-12-09 12:49:00+00:00,357.8147,4.94,12.57,47.84626,-54.09684
2022-12-09 12:59:00+00:00,356.4714,4.97,12.57,47.84626,-54.09684
2022-12-09 13:09:00+00:00,357.1929,4.91,12.57,47.84626,-54.09684
2022-12-09 13:19:00+00:00,358.7162,4.9,12.97,47.84626,-54.09684
2022-12-09 13:29:00+00:00,353.6213,4.9,12.97,47.84626,-54.09684
2022-12-09 13:39:00+00:00,349.9062,4.9,12.97,47.84626,-54.09684
2022-12-09 13:49:00+00:00,350.42800000000005,4.9,12.97,47.84626,-54.09684
2022-12-09 13:59:00+00:00,349.1545,4.9,12.97,47.84626,-54.09684
2022-12-09 14:09:00+00:00,344.4047,4.8,12.97,47.84626,-54.09684
2022-12-09 14:19:00+00:00,342.1678,4.8,13.76,47.84626,-54.09684
2022-12-09 14:29:00+00:00,341.3897,4.8,13.76,47.84626,-54.09684
2022-12-09 14:39:00+00:00,334.7346,4.75,13.76,47.84626,-54.09684
2022-12-09 14:49:00+00:00,325.4047,4.79,13.76,47.84626,-54.09684
2022-12-09 14:59:00+00:00,318.6013,4.8,13.76,47.84626,-54.09684
2022-12-09 15:09:00+00:00,311.2279,4.8,13.76,47.84626,-54.09684
2022-12-09 15:19:00+00:00,301.4764,4.8,13.21,47.84626,-54.09684
2022-12-09 15:29:00+00:00,291.6064,4.8,13.21,47.84626,-54.09684
2022-12-09 15:39:00+00:00,282.683,4.8,13.21,47.84626,-54.09684
2022-12-09 15:49:00+00:00,274.7214,4.8,13.21,47.84626,-54.09684
2022-12-09 15:59:00+00:00,266.7764,4.8,13.21,47.84626,-54.09684
2022-12-09 16:09:00+00:00,262.0764,4.8,13.21,47.84626,-54.09684
2022-12-09 16:19:00+00:00,255.0398,4.8,13.13,47.84626,-54.09684
2022-12-09 16:29:00+00:00,245.3498,4.83,13.13,47.84626,-54.09684
2022-12-09 16:39:00+00:00,237.8281,4.83,13.13,47.84626,-54.09684
2022-12-09 16:49:00+00:00,232.4948,4.86,13.13,47.84626,-54.09684
2022-12-09 16:59:00+00:00,225.2314,4.88,13.13,47.84626,-54.09684
2022-12-09 17:09:00+00:00,216.2065,4.89,13.13,47.84626,-54.09684
2022-12-09 17:19:00+00:00,211.0081,4.86,13.13,47.84626,-54.09684
2022-12-09 17:29:00+00:00,205.9232,4.8,13.13,47.84626,-54.09684
2022-12-09 17:39:00+00:00,198.6731,4.8,13.13,47.84626,-54.09684
2022-12-09 17:49:00+00:00,192.0282,4.8,13.13,47.84626,-54.09684
2022-12-09 17:59:00+00:00,189.4665,4.8,13.13,47.84626,-54.09684
2022-12-09 18:09:00+00:00,187.5281,4.8,13.13,47.84626,-54.09684
2022-12-09 18:19:00+00:00,184.6448,4.82,12.97,47.84626,-54.09684
2022-12-09 18:29:00+00:00,185.2181,4.84,12.97,47.84626,-54.09684
2022-12-09 18:39:00+00:00,186.7831,4.88,12.97,47.84626,-54.09684
2022-12-09 18:49:00+00:00,187.0798,4.89,12.97,47.84626,-54.09684
2022-12-09 18:59:00+00:00,189.2264,4.89,12.97,47.84626,-54.09684
2022-12-09 19:09:00+00:00,194.1315,4.87,12.97,47.84626,-54.09684
2022-12-09 19:19:00+00:00,197.6148,4.85,12.89,47.84626,-54.09684
2022-12-09 19:29:00+00:00,201.1348,4.86,12.89,47.84626,-54.09684
2022-12-09 19:39:00+00:00,207.0131,4.88,12.89,47.84626,-54.09684
2022-12-09 19:49:00+00:00,210.3998,4.89,12.89,47.84626,-54.09684
2022-12-09 19:59:00+00:00,212.0048,4.89,12.89,47.84626,-54.09684
2022-12-09 20:09:00+00:00,215.3881,4.89,12.89,47.84626,-54.09684
2022-12-09 20:19:00+00:00,219.798,4.9,12.73,47.84626,-54.09684
2022-12-09 20:29:00+00:00,223.7981,4.9,12.73,47.84626,-54.09684
2022-12-09 20:39:00+00:00,227.9264,4.9,12.73,47.84626,-54.09684
2022-12-09 20:49:00+00:00,233.0981,4.9,12.73,47.84626,-54.09684
2022-12-09 20:59:00+00:00,236.6681,4.9,12.73,47.84626,-54.09684
2022-12-09 21:09:00+00:00,239.6614,4.9,12.73,47.84626,-54.09684
2022-12-09 21:19:00+00:00,243.0214,4.9,12.73,47.84626,-54.09684
2022-12-09 21:29:00+00:00,247.2348,4.9,12.73,47.84626,-54.09684
2022-12-09 21:39:00+00:00,252.3514,4.9,12.73,47.84626,-54.09684
2022-12-09 21:49:00+00:00,259.9564,4.9,12.73,47.84626,-54.09684
2022-12-09 21:59:00+00:00,268.2381,4.9,12.73,47.84626,-54.09684
2022-12-09 22:09:00+00:00,274.8647,4.9,12.73,47.84626,-54.09684
2022-12-09 22:19:01+00:00,280.0031,4.9,12.65,47.84626,-54.09684
2022-12-09 22:29:01+00:00,290.3696,4.9,12.65,47.84626,-54.09684
2022-12-09 22:39:01+00:00,300.5497,4.9,12.65,47.84626,-54.09684
2022-12-09 22:49:01+00:00,302.1481,4.9,12.65,47.84626,-54.09684
2022-12-09 22:59:01+00:00,302.7363,4.9,12.65,47.84626,-54.09684
2022-12-09 23:09:01+00:00,311.7864,4.9,12.65,47.84626,-54.09684
2022-12-09 23:19:00+00:00,318.4714,4.92,12.65,47.84626,-54.09684
2022-12-09 23:29:00+00:00,318.2362,4.9,12.65,47.84626,-54.09684
2022-12-09 23:39:00+00:00,320.2581,4.9,12.65,47.84626,-54.09684
2022-12-09 23:49:00+00:00,325.8896,4.9,12.65,47.84626,-54.09684
2022-12-09 23:59:00+00:00,325.8596,4.9,12.65,47.84626,-54.09684
